COSMOS 2457 (733)

Last updated on Fri Dec 12 2025 00:03:20 GMT+0000 (Coordinated Universal Time)

1 36112U 09070B 25343.99203492 -.00000022 00000+0 00000+0 0 9997 2 36112 64.8839 77.2797 0004818 156.0783 164.5444 2.13100761124391
UTC large
Height (km)
Speed (km/s)
/
Latitude / Longitude
Inclination (degrees)
Orbital Period (minutes)
Azimuth
Elevation
Range (km)
Doppler Factor

Next 0 passes for location: London (51.5072 / 0.1276)

Sorry there are no passes over London.